Location: Corcelles
(46.1547°N, 4.7234°E)
Time: 07:52:47
(UTC+00:00)

ATLAS 5 CENTAUR R/B - Pass Details

Date: 14 July 2020
Orbit: 273 x 14305 km, 60.7° (Epoch: 14 August)

Event Time Altitude Azimuth Distance (km) Brightness Sun altitude
Rises 02:42:52 0° 304° (WNW) 2,694 5.3 -11.4°
Reaches altitude 10° 02:44:22 10° 294° (WNW) 2,137 4.6 -11.2°
Maximum altitude 02:48:37 38° 225° (SW) 1,811 3.9 -10.7°
Drops below altitude 10° 03:01:50 10° 165° (SSE) 6,687 7.0 -9.2°
Sets 03:11:28 0° 161° (SSE) 9,982 7.9 -8.0°
